Regional Weather Roundup
Issued by NWS

Home | Current Version | Previous Version | Graphics & Text | Print | Product List | Glossary On
Versions: 1 2 3 4 5 6 7 8 9 10 11 12 13 14 15 16 17 18 19 20 21 22 23 24 25 26 27 28 29 30 31 32 33 34 35 36 37 38 39 40 41 42 43 44 45 46 47 48 49 50
000
ASUS43 KLOT 111608
RWRIL

ILLINOIS REGIONAL WEATHER ROUNDUP
NATIONAL WEATHER SERVICE CHICAGO/ROMEOVILLE IL
1000 AM CST MON DEC 11 2017

NOTE: "FAIR" INDICATES FEW OR NO CLOUDS BELOW 12,000 FEET WITH NO
SIGNIFICANT WEATHER AND/OR OBSTRUCTIONS TO VISIBILITY.

* THESE STATIONS ARE NOT UNDER NWS QUALITY CONTROL. THEY ALSO MAY NOT
  REPORT WEATHER SUCH AS PRECIPITATION OR FOG.

ILZ001-002-007-009-015-016-024-111700-
NORTHWEST ILLINOIS

CITY           SKY/WX    TMP DP  RH WIND       PRES   REMARKS
MOLINE         CLOUDY    38  27  64 SE7       29.73F WCI  33
SAVANNA*       CLOUDY    34  26  72 E6        29.76F WCI  28
$$

ILZ003-004-008-010-011-017-018-111700-
NORTH CENTRAL ILLINOIS

CITY           SKY/WX    TMP DP  RH WIND       PRES   REMARKS
ROCKFORD       CLOUDY    32  24  72 SE9       29.80F WCI  24
FREEPORT*      CLOUDY    32  25  74 S10       29.79F WCI  24
ROCHELLE*      CLOUDY    32  26  76 SE16      29.80F WCI  21
DE KALB*       CLOUDY    31  25  79 S16       29.80F WCI  20
PERU*          PTSUNNY   33  25  71 S12       29.81F WCI  25
$$

ILZ005-006-012>014-019>023-111700-
NORTHEAST ILLINOIS

CITY           SKY/WX    TMP DP  RH WIND       PRES   REMARKS
CHICAGO-OHARE  CLOUDY    32  22  66 S13       29.85F WCI  22
CHICAGO-MIDWAY PTSUNNY   32  23  69 S10G21    29.86F WCI  24
AURORA         CLOUDY    31  25  78 SE12      29.82F WCI  22
LANSING*       CLOUDY    31  25  78 S12       29.89F WCI  22
WAUKEGAN       CLOUDY    30  23  75 S9        29.83F WCI  22
DUPAGE AIRPORT CLOUDY    30  24  78 S14       29.82F HAZE    WCI  19
KANKAKEE*      CLOUDY    32  24  71 SE9       29.88F WCI  24
WHEELING       MOSUNNY   32  24  72 S12       29.86F WCI  23
MORRIS*        CLOUDY    33  25  75 S10       29.83F WCI  24
ROMEOVILLE*    CLOUDY    31  25  78 S12       29.85F WCI  22
NORTHERLY ISL    N/A     31  22  69 S10         N/A  WCI  22
$$

LMZ740>746-111700-
SOUTHERN LAKE MICHIGAN

STATION/POSITION SKY/WX   TEMP    WIND        PRES    VSBY  WAVE
                          AIR SEA DIR/SP/G                  HT/PER
                          (F)     (DEG/KT/KT) (MB)    (MI)  (FT/S)
HARRISON CRIB              31     190/ 17/ 19   N/A
BURNHAM HARBOR             31     170/  7/ 13   N/A
CALUMET HARBOR             30     160/  9/ 12 1011.4F
BURNS HARBOR               30     180/ 10/ 15 1013.5F
MICHIGAN CITY              29     160/ 13/ 16   N/A
$$

ILZ025>027-034>036-040-047-049-050-058-095>099-111700-
WEST-CENTRAL ILLINOIS

CITY           SKY/WX    TMP DP  RH WIND       PRES   REMARKS
QUINCY         CLOUDY    43  25  49 SW13      29.77F
GALESBURG*     CLOUDY    37  30  74 S8        29.75F WCI  31
MACOMB*        CLOUDY    38  28  67 S9        29.78F WCI  32
JACKSONVILLE*  MOSUNNY   42  27  54 S12       29.79F
PITTSFIELD*    CLOUDY    43  28  54 S10       29.80F
$$

ILZ028>032-037-038-041>044-048-051>054-059>061-111700-
CENTRAL ILLINOIS

CITY           SKY/WX    TMP DP  RH WIND       PRES   REMARKS
PONTIAC        CLOUDY    37  28  70 S12       29.84F WCI  30
BLOOMINGTON    MOSUNNY   37  27  67 S18G29    29.81F WCI  27
PEORIA         MOSUNNY   38  28  67 S10       29.78F WCI  31
LACON*         MOSUNNY   38  26  64 S8        29.78F WCI  32
LINCOLN*       MOSUNNY   39  29  68 S15       29.82F WCI  30
SPRINGFIELD    MOSUNNY   44  29  55 S14       29.82F
TAYLORVILLE    PTSUNNY   40  28  63 S18       29.84F
$$

ILZ033-039-045-046-055>057-062-063-111700-
EAST-CENTRAL ILLINOIS

CITY           SKY/WX    TMP DP  RH WIND       PRES   REMARKS
CHAMPAIGN      PTSUNNY   38  27  64 S15       29.88F WCI  29
DANVILLE*      PTSUNNY   33  25  72 S16       29.86F WCI  23
RANTOUL*       CLOUDY    39  29  68 S16       29.86F WCI  30
MATTOON        MOSUNNY   37  28  70 S13       29.88F WCI  29
PARIS*         MOSUNNY   36  27  70 S9        29.93F WCI  29
$$

ILZ079-100>102-111700-
SOUTHWEST ILLINOIS

CITY           SKY/WX    TMP DP  RH WIND       PRES   REMARKS
ALTON          PTSUNNY   43  30  61 S14       29.85F
BELLEVILLE     CLOUDY    49  29  45 S13       29.87F
CAHOKIA*       MOSUNNY   49  26  41 W7        29.87F
$$

ILZ064>066-069>071-074>076-080>082-084>086-088>090-092>094-111700-
SOUTH-CENTRAL ILLINOIS

CITY           SKY/WX    TMP DP  RH WIND       PRES   REMARKS
CARBONDALE     SUNNY     50  30  46 S17G24    29.99F
CAIRO*         SUNNY     44  33  64 S7        30.07F
EFFINGHAM*     MOSUNNY   40  30  67 SE8       29.93F
MT. VERNON     MOSUNNY   48  31  51 SW17      29.96F
CENTRALIA*     PTSUNNY   47  31  55 S16G22    29.93F
SALEM*         PTSUNNY   44  29  54 S14G20    29.93F
METROPOLIS*    SUNNY     48  32  53 S8        30.06F
$$

ILZ067-068-072-073-078-083-087-091-111700-
SOUTHEAST ILLINOIS

CITY           SKY/WX    TMP DP  RH WIND       PRES   REMARKS
LAWRENCEVILLE  CLOUDY    37  29  72 S13       29.99F WCI  29
FLORA*         CLOUDY    41  31  67 S13       29.95F
FAIRFIELD*     CLOUDY    44  32  62 S10       29.96F
HARRISBURG*    SUNNY     45  32  59 S10       30.02F
ROBINSON*      MOSUNNY   35  28  75 S13       29.97F WCI  26
CARMI*         CLOUDY    42  33  72 S14       30.01F
$$

ABBREVIATIONS USED IN REMARKS
   TC - TEMPERATURE IN CELSIUS
  WCI - WIND CHILL INDEX
   HX - HEAT INDEX
  VSB - VISIBILITY
$$




USA.gov is the U.S. government's official web portal to all federal, state and local government web resources and services.